Pecs, Hungary

6:13 AM CEST on April 24, 2017 (GMT +0200)
Pecs

Weather History for LHPP - December, 2013

Change the Weather History Date:

Wednesday, December 18, 2013

  Actual Average Record
Temperature  
Mean Temperature 27 °F -  
Max Temperature 28 °F 36 °F - ()
Min Temperature 26 °F 27 °F - ()
Degree Days  
Heating Degree Days 38    
Moisture  
Dew Point 27 °F    
Average Humidity 97    
Maximum Humidity 100    
Minimum Humidity 92    
Precipitation  
Precipitation 0.00 in 0.05 in - ()
Sea Level Pressure  
Sea Level Pressure 30.42 in    
Wind  
Wind Speed 4 mph ()    
Max Wind Speed 7 mph    
Max Gust Speed -    
Visibility 0.1 miles    
Events Fog , Rain    
T = Trace of Precipitation, MM = Missing Value Source: Averaged Metar Reports

Daily Weather History Graph

Daily Weather History Graph

Search for Another Location

Airport or City:

Trip Planner

Search our weather history database for the weather conditions in past years. The results will help you decide how hot, cold, wet, or windy it might be!

Date:

Astronomy

Dec. 18, 2013 Rise Set
Actual Time 7:24 AM CET 4:03 PM CET
Civil Twilight 6:49 AM CET 4:37 PM CET
Nautical Twilight 6:11 AM CET 5:15 PM CET
Astronomical Twilight 5:35 AM CET 5:52 PM CET
Moon 5:23 PM CET (12/18) 7:47 AM CET (12/18)
Length of Visible Light 9h 48m
Length of Day
8h 38m
Full, 99% of the Moon is Illuminated
Dec 18
Full
Dec 25
Last Quarter
Jan 1
New
Jan 8
First Quarter
Jan 16
Full

Hourly Weather History & Observations

Time (CET) Temp. Windchill Dew Point Humidity Pressure Visibility Wind Dir Wind Speed Gust Speed Precip Events Conditions
12:45 AM 26.6 °F 20.0 °F 26.6 °F 100% 30.51 in 0.1 mi ESE 5.8 mph - N/A Fog Light Freezing Fog
1:00 AM 27 °F - 26 °F 97% 30.54 in 0 mi ESE 6.7 mph - - Fog Heavy Fog
1:45 AM 28.4 °F 22.2 °F 26.6 °F 93% 30.48 in 0.1 mi East 5.8 mph - N/A Fog Light Freezing Fog
2:00 AM 28 °F - 27 °F 92% 30.53 in 0 mi East 6.7 mph - - Fog Heavy Fog
2:45 AM 26.6 °F 19.1 °F 26.6 °F 100% 30.48 in 0.1 mi ESE 6.9 mph - N/A Fog Light Freezing Fog
3:45 AM 26.6 °F 19.1 °F 26.6 °F 100% 30.48 in 0.1 mi East 6.9 mph - N/A Fog Light Freezing Fog
4:00 AM 27 °F - 26 °F 96% 30.51 in 0 mi East 6.7 mph - - Fog Heavy Fog
4:45 AM 26.6 °F 22.6 °F 26.6 °F 100% 30.45 in 0.1 mi SE 3.5 mph - N/A Fog Light Freezing Fog
5:00 AM 27 °F - 26 °F 97% 30.51 in 0 mi SE 4.5 mph - - Fog Heavy Fog
5:15 AM 26.6 °F 20.0 °F 26.6 °F 100% 30.45 in 0.1 mi SE 5.8 mph - N/A Fog Light Freezing Fog
5:45 AM 26.6 °F 20.0 °F 26.6 °F 100% 30.45 in 0.1 mi SE 5.8 mph - N/A Fog Light Freezing Fog
6:00 AM 27 °F - 26 °F 94% 30.49 in 0 mi SE 6.7 mph - - Fog Heavy Fog
6:00 AM - - - N/A% - 0.1 mi ESE 5.8 mph - N/A Fog Light Freezing Fog
6:15 AM 26.6 °F 20.0 °F 26.6 °F 100% 30.45 in 0.1 mi ESE 5.8 mph - N/A Fog Light Freezing Fog
6:45 AM 26.6 °F 20.0 °F 26.6 °F 100% 30.45 in 0.1 mi ESE 5.8 mph - N/A Fog Light Freezing Fog
7:00 AM 27 °F - 26 °F 94% 30.49 in 0 mi ESE 6.7 mph - - Fog Heavy Fog
7:15 AM 26.6 °F 21.2 °F 26.6 °F 100% 30.45 in 0.1 mi ESE 4.6 mph - N/A Fog Light Freezing Fog
7:45 AM 26.6 °F 20.0 °F 26.6 °F 100% 30.45 in 0.1 mi SE 5.8 mph - N/A Fog Light Freezing Fog
8:00 AM 27 °F - 26 °F 95% 30.49 in 0 mi SE 4.5 mph - - Fog Heavy Fog
8:15 AM 26.6 °F 20.0 °F 26.6 °F 100% 30.45 in 0.1 mi ESE 5.8 mph - N/A Fog Light Freezing Fog
8:45 AM 26.6 °F 20.0 °F 26.6 °F 100% 30.45 in 0.1 mi ESE 5.8 mph - N/A Fog Light Freezing Fog
9:00 AM 27 °F - 26 °F 95% 30.49 in 0 mi ESE 4.5 mph - - Fog Heavy Fog
9:00 AM - - - N/A% - 0.1 mi ESE 5.8 mph - N/A Fog Light Freezing Fog
9:15 AM 26.6 °F 21.2 °F 26.6 °F 100% 30.45 in 0.1 mi ESE 4.6 mph - N/A Fog Light Freezing Fog
9:45 AM 26.6 °F 21.2 °F 26.6 °F 100% 30.45 in 0.1 mi SE 4.6 mph - N/A Fog Light Freezing Fog
10:00 AM 27 °F - 26 °F 97% 30.48 in 0 mi SE 4.5 mph - - Fog Heavy Fog
10:15 AM 28.4 °F 22.2 °F 26.6 °F 93% 30.45 in 0.1 mi ESE 5.8 mph - N/A Fog Light Freezing Fog
10:45 AM 28.4 °F 22.2 °F 26.6 °F 93% 30.42 in 0.3 mi ESE 5.8 mph - N/A Fog Light Freezing Fog
11:00 AM 28 °F - 27 °F 92% 30.48 in 0 mi ESE 4.5 mph - - Fog Fog
11:15 AM 28.4 °F 24.6 °F 26.6 °F 93% 30.42 in 0.3 mi SSE 3.5 mph - N/A Fog Light Freezing Fog
11:45 AM 28.4 °F - 26.6 °F 93% 30.42 in 0.3 mi ESE 1.2 mph - N/A Fog Light Freezing Fog
12:00 PM 28 °F - 27 °F 96% 30.45 in 0 mi ESE 2.2 mph - - Fog Fog
12:00 PM - - - N/A% - 0.5 mi Variable 3.5 mph - N/A Fog Light Freezing Fog
12:15 PM 28.4 °F 24.6 °F 28.4 °F 100% 30.39 in 0.2 mi SE 3.5 mph - N/A Fog Light Freezing Fog
12:45 PM 28.4 °F 24.6 °F 28.4 °F 100% 30.39 in 0.3 mi ESE 3.5 mph - N/A Fog Light Freezing Fog
1:00 PM 29 °F - 28 °F 94% 30.44 in 0 mi ESE 2.2 mph - - Fog Fog
1:15 PM 28.4 °F 24.6 °F 28.4 °F 100% 30.39 in 0.2 mi East 3.5 mph - N/A Fog Light Freezing Fog
1:45 PM 28.4 °F 23.3 °F 28.4 °F 100% 30.36 in 0.2 mi East 4.6 mph - N/A Fog Light Freezing Fog
2:00 PM 29 °F - 28 °F 94% 30.42 in 0 mi East 4.5 mph - - Fog Fog
2:15 PM 28.4 °F 23.3 °F 28.4 °F 100% 30.36 in 0.1 mi ESE 4.6 mph - N/A Fog Light Freezing Fog
2:45 PM 28.4 °F - 28.4 °F 100% 30.39 in 0.1 mi ESE 2.3 mph - N/A Fog Light Freezing Fog
3:00 PM - - - N/A% - 0.1 mi Variable 3.5 mph - N/A Fog Light Freezing Fog
3:15 PM 28.4 °F 23.3 °F 28.4 °F 100% 30.36 in 0.1 mi SE 4.6 mph - N/A Fog Light Freezing Fog
3:45 PM 28.4 °F 24.6 °F 28.4 °F 100% 30.36 in 0.1 mi East 3.5 mph - N/A Fog Light Freezing Fog
4:00 PM 28 °F - 28 °F 98% 30.42 in 0 mi East 4.5 mph - - Fog Heavy Fog
4:15 PM 28.4 °F 24.6 °F 28.4 °F 100% 30.36 in 0.1 mi SE 3.5 mph - N/A Fog Light Freezing Fog
4:45 PM 28.4 °F 24.6 °F 26.6 °F 93% 30.36 in 0.1 mi East 3.5 mph - N/A Fog Light Freezing Fog
5:00 PM 28 °F - 27 °F 96% 30.42 in 0 mi East 2.2 mph - - Fog Heavy Fog
5:15 PM 28.4 °F - 26.6 °F 93% 30.36 in 0.1 mi East 2.3 mph - N/A Fog Light Freezing Fog
5:23 PM 28.4 °F 24.6 °F 26.6 °F 93% 30.42 in 0.1 mi East 3.5 mph - N/A   Light Freezing Rain
5:45 PM 28.4 °F 23.3 °F 26.6 °F 93% 30.36 in 0.1 mi ESE 4.6 mph - N/A   Light Freezing Rain
6:00 PM 28 °F - 27 °F 96% 30.41 in 0 mi ESE 4.5 mph - - Rain Light Freezing Drizzle
6:15 PM 28.4 °F 24.6 °F 26.6 °F 93% 30.36 in 0.1 mi East 3.5 mph - N/A   Light Freezing Rain
6:45 PM 28.4 °F - 26.6 °F 93% 30.36 in 0.1 mi SSE 2.3 mph - N/A   Light Freezing Rain
7:00 PM 28 °F - 27 °F 94% 30.41 in 0 mi SSE 2.2 mph - - Rain Light Freezing Drizzle
7:15 PM 28.4 °F - 26.6 °F 93% 30.36 in 0.1 mi Calm Calm - N/A   Light Freezing Rain
7:45 PM 28.4 °F - 26.6 °F 93% 30.36 in 0.1 mi SSW 2.3 mph - N/A   Light Freezing Rain
8:00 PM 28 °F - 27 °F 92% 30.40 in 0 mi SSW 2.2 mph - - Rain Light Freezing Drizzle
8:15 PM 26.6 °F - 26.6 °F 100% 30.36 in 0.1 mi Calm Calm - N/A   Light Freezing Rain
8:45 PM 28.4 °F - 26.6 °F 93% 30.36 in 0.1 mi Calm Calm - N/A   Light Freezing Rain
9:00 PM 28 °F - 27 °F 92% 30.40 in 0 mi Calm Calm - - Rain Light Freezing Drizzle
9:38 PM 26.6 °F - 26.6 °F 100% 30.36 in - Calm Calm - N/A   Unknown
9:45 PM 26.6 °F - 26.6 °F 100% 30.36 in 0.1 mi Calm Calm - N/A   Light Freezing Rain
10:00 PM 27 °F - 26 °F 97% 30.40 in 0 mi Calm Calm - - Rain Light Freezing Drizzle
10:45 PM 26.6 °F - 26.6 °F 100% 30.33 in 0.2 mi SSE 1.2 mph - N/A   Light Freezing Rain
11:00 PM 27 °F - 26 °F 96% 30.38 in 0 mi SSE 2.2 mph - - Rain Light Freezing Drizzle
11:45 PM 26.6 °F - 26.6 °F 100% 30.33 in 0.2 mi Calm Calm - N/A   Light Freezing Rain